Location: Fort Collins
(40.5850°N, 105.0840°W)
Time: 18:16:06
(UTC-06:00)

Cosmos 2297 Rocket - Visible Passes

Search period start: 01 August 2015 00:00
Search period end: 11 August 2015 00:00
Orbit: 838 x 845 km, 71.0° (Epoch: 31 July)

Date Brightness Start Highest point End Pass type
(mag) Time Alt. Az. Time Alt. Az. Time Alt. Az.
01 Aug 3.4 05:01:42 10° NNW 05:07:11 48° ENE 05:12:39 10° SE visible
01 Aug 5.5 21:40:10 10° WNW 21:42:58 13° NW 21:45:31 10° NNW visible
02 Aug 3.4 04:46:40 10° NNW 04:52:06 46° ENE 04:57:32 10° SE visible
02 Aug 5.5 21:24:50 10° WNW 21:27:51 14° NW 21:30:37 10° NNW visible
03 Aug 3.5 04:31:38 10° NNW 04:37:01 44° ENE 04:42:25 10° SE visible
03 Aug 5.4 21:09:32 10° W 21:12:44 15° NW 21:15:42 10° NNW visible
04 Aug 3.6 04:16:37 10° N 04:21:56 41° ENE 04:27:17 10° SE visible
04 Aug 5.3 20:54:14 10° W 20:57:37 15° NW 21:00:46 10° NNW visible
05 Aug 3.6 04:01:35 10° N 04:06:52 39° ENE 04:12:10 10° SE visible
05 Aug 5.3 20:38:58 10° W 20:42:30 16° NW 20:45:50 10° N visible
06 Aug 3.7 03:46:33 10° N 03:51:47 38° ENE 03:57:02 10° SE visible
06 Aug 2.9 05:30:49 10° NW 05:35:45 30° WSW 05:40:34 10° SSW visible
07 Aug 3.7 03:31:32 10° N 03:36:41 36° ENE 03:41:53 10° SE visible
07 Aug 2.9 05:15:42 10° NW 05:20:42 32° WSW 05:25:36 10° SSW visible
08 Aug 3.8 03:16:30 10° N 03:21:36 34° ENE 03:26:45 10° ESE visible
08 Aug 2.8 05:00:35 10° NW 05:05:40 34° WSW 05:10:39 10° SSW visible
09 Aug 3.8 03:01:29 10° N 03:06:31 33° ENE 03:11:36 10° ESE visible
09 Aug 2.7 04:45:29 10° NW 04:50:37 36° WSW 04:55:41 10° S visible
10 Aug 3.8 02:46:28 10° N 02:51:26 31° NE 02:56:27 10° ESE visible
10 Aug 2.7 04:30:22 10° NW 04:35:35 38° WSW 04:40:17 12° S visible
